[[{"header":{"parameterUnit":"m.s-1","parameterCategory":2,"la1":30.2991,"la2":30.254,"lo1":-89.0895,"lo2":-89.0444,"dy":0.0017,"dx":0.0017,"nx":28,"ny":28,"refTime":"2023-05-01T21:00:00:Z","depth":"0","parameterNumber":2,"parameterNumberName":"U-component_of_CURRENTS"},"data":[0,0,0,0,0,0,0,0,0,0,0,0,0,0,0,0,0,0,0,0,0,0,0,0,0,0,0,0,0,0,0,0,0,0,0,0,0,0,0,0,0,0,0,0,0,0,0,0,0,0,0,0,0,0,0,0,0,0,0.1086,0.1087,0,0.1169,0.117,0.117,0.1225,0.1226,0.1226,0.1227,0.1272,0.1273,0.1274,0,0,0,0,0,0,0,0,0,0,0,0,0,0.1091,0.109,0.1086,0.1087,0.1088,0.1169,0.117,0.1171,0.1225,0.1226,0.1226,0.1227,0.1272,0.1273,0.1274,0,0,0,0,0,0,0,0,0,0,0,0,0,0.1122,0.1089,0.1085,0.1125,0.113,0.1168,0.117,0.1171,0.1225,0.1226,0.1226,0.1227,0.1272,0.1273,0.1274,0.1269,0,0,0.1278,0.1278,0,0,0,0,0,0,0,0,0.112,0.1121,0.1118,0.1123,0.1128,0.1188,0.1188,0.1202,0.1225,0.1188,0.1227,0.1227,0.124,0.1244,0.1258,0.1271,0.1273,0.1278,0.1279,0.1279,0.1279,0,0,0,0,0,0,0,0.1117,0.1119,0.1118,0.1119,0.1125,0.1179,0.1183,0.1192,0.1208,0.1191,0.1196,0.1206,0.1243,0.1257,0.1259,0.1273,0.1278,0.1279,0.128,0.128,0.133,0.1331,0,0,0,0,0,0,0.1101,0.1116,0.1115,0.112,0.1126,0.1178,0.1183,0.1167,0.1209,0.1217,0.1205,0.1208,0.1254,0.1258,0.1261,0.1331,0.1279,0.128,0.1281,0.1329,0.133,0.1331,0,0,0,0,0,0,0.1101,0.1099,0.1112,0.1123,0.1128,0.1176,0.116,0.1169,0.1177,0.122,0.1227,0.1204,0.1255,0.1259,0.128,0.133,0.1281,0.1282,0.1329,0.133,0.133,0.1423,0,0,0,0,0,0,0.11,0.1098,0.1096,0.112,0.1127,0.1136,0.1159,0.117,0.1183,0.1188,0.1221,0.1227,0.1256,0.1278,0.1281,0.1331,0.1283,0.1328,0.1329,0.133,0.1419,0.1427,0.1434,0,0,0,0,0,0.1099,0.1098,0.1094,0.1096,0.1116,0.1136,0.1145,0.1183,0.1182,0.119,0.1218,0.1226,0.1288,0.128,0.1283,0.1335,0.1327,0.1329,0.133,0.1416,0.1426,0.1434,0,0,0,0,0,0,0.1105,0.1104,0.1101,0.1099,0.1113,0.1146,0.1177,0.117,0.1197,0.121,0.1228,0.1236,0.1267,0.1274,0.1264,0.1347,0.131,0.1312,0.1375,0.1383,0.139,0.1381,0.1284,0,0,0,0,0,0.1099,0.1098,0.1101,0.1104,0.1116,0.1135,0.1151,0.1163,0.1186,0.1199,0.1221,0.1249,0.1275,0.1306,0.1318,0.1365,0.1365,0.1398,0.1406,0.1412,0.1404,0.1438,0.1448,0.1335,0.1335,0.1335,0,0,0.1095,0.1106,0.1099,0.1106,0.1132,0.1159,0.1147,0.1174,0.12,0.1198,0.125,0.1257,0.1282,0.1342,0.1359,0.1362,0.1448,0.1414,0.142,0.1407,0.1441,0.1452,0.1462,0.1336,0.1336,0.1336,0,0,0.1108,0.1105,0.1112,0.1135,0.1168,0.1182,0.1178,0.1201,0.1222,0.1253,0.1265,0.1298,0.1337,0.1387,0.141,0.1454,0.1462,0.1459,0.1526,0.156,0.157,0.1579,0.1619,0.163,0.1494,0.1494,0.1494,0,0.1094,0.1113,0.112,0.1156,0.1187,0.1186,0.1212,0.1237,0.1262,0.1288,0.128,0.1345,0.1366,0.1447,0.1478,0.1476,0.149,0.1501,0.1573,0.1581,0.1588,0.1626,0.1638,0.1499,0.1498,0.1498,0.1497,0,0.1124,0.1148,0.1169,0.1206,0.1238,0.1263,0.1296,0.1325,0.1338,0.136,0.1411,0.1438,0.1483,0.1505,0.1515,0.1589,0.158,0.1558,0.1557,0.1606,0.1642,0.1653,0.1505,0.1504,0.1502,0.1501,0,0,0.1047,0.1153,0.1161,0.1199,0.1265,0.1286,0.1356,0.1402,0.1444,0.1474,0.1529,0.1584,0.1584,0.1606,0.1622,0.1668,0.175,0.1649,0.1649,0.17,0.1835,0.1915,0.1933,0.1746,0.1747,0.1749,0.1851,0,0.1054,0.112,0.118,0.1252,0.1289,0.1348,0.1408,0.1464,0.1509,0.1566,0.1603,0.1646,0.1629,0.1658,0.1702,0.1723,0.1776,0.1724,0.1768,0.1769,0.1844,0.1947,0.2051,0.2157,0.186,0.1862,0.1863,0,0.1062,0.1108,0.1167,0.128,0.1301,0.1345,0.1447,0.1499,0.1596,0.1635,0.1696,0.1714,0.1793,0.1751,0.1836,0.1805,0.1824,0.1838,0.1842,0.1885,0.1868,0.2053,0.2186,0.2231,0.1879,0.1878,0.1876,0,0.1007,0.1108,0.115,0.1188,0.1301,0.1348,0.1405,0.1512,0.1572,0.1671,0.172,0.1798,0.1836,0.1872,0.1922,0.1882,0.2007,0.1955,0.2043,0.2048,0.2127,0.2138,0.2317,0.2004,0.2004,0.2004,0.2003,0,0.0997,0.1039,0.1125,0.1151,0.1215,0.131,0.1393,0.1468,0.158,0.1662,0.1733,0.1806,0.1863,0.1947,0.1966,0.2069,0.205,0.2077,0.2093,0.2165,0.2177,0.2207,0.2085,0.2008,0.2007,0.2006,0.2005,0,0.0955,0.1005,0.1063,0.116,0.1194,0.1238,0.1379,0.1444,0.1545,0.1657,0.1691,0.1828,0.1951,0.2026,0.2113,0.214,0.2193,0.2244,0.2336,0.2362,0.2471,0.2346,0.2285,0.2213,0.2361,0.2364,0.2366,0,0.0939,0.0955,0.1047,0.1081,0.1128,0.121,0.1277,0.1405,0.1481,0.1674,0.172,0.1884,0.2011,0.22,0.2316,0.2428,0.2294,0.2553,0.249,0.2533,0.2403,0.2199,0.2125,0.2637,0.2641,0.2645,0.2647,0,0.0892,0.0919,0.0968,0.1041,0.1102,0.1193,0.1292,0.1346,0.1508,0.161,0.1783,0.1908,0.2158,0.2363,0.2534,0.2602,0.2493,0.2628,0.2656,0.2631,0.2431,0.2354,0.2503,0.2679,0.2676,0.2674,0.2672,0.2671,0.0854,0.0867,0.0925,0.1007,0.1083,0.1172,0.1235,0.1358,0.1479,0.1652,0.178,0.199,0.2339,0.2618,0.272,0.2965,0.2674,0.2981,0.2827,0.2621,0.2547,0.2774,0.297,0.2968,0.2967,0.2966,0.2965,0,0.0796,0.0825,0.0891,0.0984,0.1062,0.1126,0.1249,0.1317,0.1448,0.1638,0.1801,0.22,0.2507,0.2793,0.3126,0.3184,0.3041,0.316,0.2928,0.284,0.3111,0.3131,0.3392,0.3392,0.3392,0.3392,0.3392,0.3392,0.0763,0.0782,0.0828,0.0932,0.1013,0.1102,0.1164,0.1286,0.1429,0.1684,0.1921,0.2119,0.2556,0.3034,0.3323,0.3316,0.3052,0.3012,0.2825,0.3106,0.3079,0.3052,0.3058,0.33,0.3299,0.2619,0.2614,0.2609]},{"header":{"parameterUnit":"m.s-1","parameterCategory":2,"la1":30.2991,"la2":30.254,"lo1":-89.0895,"lo2":-89.0444,"dy":0.0017,"dx":0.0017,"nx":28,"ny":28,"refTime":"2023-05-01T21:00:00:Z","depth":"0","parameterNumber":3,"parameterNumberName":"V-component_of_CURRENTS"},"data":[0,0,0,0,0,0,0,0,0,0,0,0,0,0,0,0,0,0,0,0,0,0,0,0,0,0,0,0,0,0,0,0,0,0,0,0,0,0,0,0,0,0,0,0,0,0,0,0,0,0,0,0,0,0,0,0,0,0,-0.1809,-0.1808,0,-0.1798,-0.1799,-0.1799,-0.1819,-0.1819,-0.1819,-0.1819,-0.1851,-0.1852,-0.1853,0,0,0,0,0,0,0,0,0,0,0,0,0,-0.1841,-0.1841,-0.1809,-0.1808,-0.1808,-0.1798,-0.1799,-0.1799,-0.1819,-0.1819,-0.1819,-0.1819,-0.1851,-0.1852,-0.1853,0,0,0,0,0,0,0,0,0,0,0,0,0,-0.1836,-0.1841,-0.1809,-0.1811,-0.181,-0.1798,-0.1799,-0.1799,-0.1819,-0.1819,-0.1819,-0.1819,-0.185,-0.1852,-0.1853,-0.1863,0,0,-0.1857,-0.1858,0,0,0,0,0,0,0,0,-0.1836,-0.1835,-0.1811,-0.181,-0.181,-0.1803,-0.1821,-0.182,-0.1819,-0.1824,-0.1819,-0.1819,-0.1834,-0.1837,-0.1845,-0.1864,-0.1866,-0.1857,-0.1858,-0.1859,-0.1859,0,0,0,0,0,0,0,-0.1836,-0.1836,-0.1813,-0.181,-0.1809,-0.1809,-0.1809,-0.1821,-0.1836,-0.1823,-0.1823,-0.1809,-0.1835,-0.1844,-0.1846,-0.1866,-0.1857,-0.1859,-0.1859,-0.186,-0.1906,-0.1906,0,0,0,0,0,0,-0.1823,-0.1836,-0.1813,-0.1812,-0.1814,-0.1808,-0.1808,-0.1812,-0.1835,-0.1836,-0.1809,-0.181,-0.1842,-0.1844,-0.1847,-0.1833,-0.1859,-0.186,-0.1861,-0.1906,-0.1906,-0.1906,0,0,0,0,0,0,-0.1824,-0.1821,-0.1813,-0.1816,-0.1814,-0.1806,-0.181,-0.1811,-0.182,-0.1822,-0.1826,-0.1816,-0.1842,-0.1845,-0.1858,-0.1835,-0.1861,-0.1862,-0.1905,-0.1906,-0.1906,-0.1822,0,0,0,0,0,0,-0.1825,-0.1822,-0.1804,-0.1816,-0.1813,-0.179,-0.181,-0.1811,-0.1808,-0.1809,-0.1829,-0.1832,-0.1842,-0.1856,-0.1859,-0.1838,-0.1863,-0.1905,-0.1905,-0.1906,-0.1824,-0.1819,-0.1816,0,0,0,0,0,-0.1827,-0.1791,-0.1804,-0.1799,-0.1794,-0.1788,-0.1787,-0.1787,-0.1808,-0.1799,-0.1825,-0.1832,-0.1863,-0.1857,-0.1861,-0.1839,-0.1904,-0.1905,-0.1906,-0.1826,-0.182,-0.1816,0,0,0,0,0,0,-0.1769,-0.179,-0.1803,-0.177,-0.1775,-0.1788,-0.1762,-0.1788,-0.1804,-0.1795,-0.1834,-0.1838,-0.1842,-0.1863,-0.1856,-0.186,-0.1886,-0.1888,-0.1824,-0.1819,-0.1815,-0.1771,-0.1864,0,0,0,0,0,-0.1754,-0.1756,-0.1766,-0.1741,-0.1738,-0.1761,-0.1754,-0.1755,-0.1771,-0.1778,-0.1793,-0.1818,-0.185,-0.1852,-0.187,-0.1869,-0.1899,-0.1863,-0.1858,-0.1854,-0.1825,-0.189,-0.1889,-0.1909,-0.1909,-0.1909,0,0,-0.1718,-0.1734,-0.1727,-0.1731,-0.1736,-0.1703,-0.1758,-0.1732,-0.1704,-0.1778,-0.1744,-0.1799,-0.185,-0.1847,-0.185,-0.1858,-0.1863,-0.1855,-0.1851,-0.1823,-0.1891,-0.1889,-0.1887,-0.191,-0.191,-0.191,0,0,-0.1655,-0.1669,-0.1648,-0.1642,-0.1635,-0.1646,-0.1642,-0.1648,-0.1649,-0.1633,-0.1695,-0.174,-0.1752,-0.1796,-0.1824,-0.1812,-0.1843,-0.1822,-0.1752,-0.1816,-0.1814,-0.1813,-0.1834,-0.1835,-0.1813,-0.1813,-0.1813,0,-0.1609,-0.1597,-0.1634,-0.16,-0.1587,-0.1622,-0.1583,-0.1574,-0.158,-0.1589,-0.1597,-0.1684,-0.1724,-0.1774,-0.1763,-0.1797,-0.1826,-0.1762,-0.1808,-0.1807,-0.1807,-0.183,-0.1832,-0.1809,-0.1809,-0.181,-0.181,0,-0.1523,-0.1511,-0.1491,-0.1479,-0.1464,-0.1435,-0.143,-0.1419,-0.1434,-0.1441,-0.148,-0.1555,-0.1618,-0.1645,-0.1688,-0.1726,-0.1743,-0.1799,-0.1812,-0.18,-0.1824,-0.1828,-0.1803,-0.1805,-0.1806,-0.1807,0,0,-0.1448,-0.1441,-0.1436,-0.1427,-0.1405,-0.1389,-0.1342,-0.134,-0.1327,-0.1333,-0.1352,-0.1417,-0.1483,-0.1522,-0.1614,-0.1656,-0.1683,-0.1708,-0.1713,-0.1709,-0.1791,-0.1763,-0.1765,-0.1751,-0.1751,-0.1752,-0.1802,0,-0.1384,-0.134,-0.1341,-0.128,-0.1261,-0.1273,-0.1234,-0.1221,-0.1234,-0.1242,-0.1331,-0.1371,-0.143,-0.1486,-0.1534,-0.1661,-0.1692,-0.1661,-0.1819,-0.1822,-0.1785,-0.1769,-0.1734,-0.1772,-0.1806,-0.1807,-0.1808,0,-0.1296,-0.13,-0.125,-0.1236,-0.1223,-0.1173,-0.1166,-0.1136,-0.1149,-0.116,-0.1216,-0.1284,-0.1366,-0.1425,-0.1575,-0.1553,-0.1645,-0.1726,-0.1732,-0.1731,-0.1801,-0.1796,-0.1779,-0.1835,-0.1814,-0.1814,-0.1813,0,-0.1266,-0.1229,-0.1213,-0.1194,-0.1165,-0.1143,-0.1129,-0.1117,-0.1101,-0.1131,-0.1135,-0.1231,-0.13,-0.1419,-0.1559,-0.1577,-0.1708,-0.1775,-0.1827,-0.1825,-0.1835,-0.1833,-0.1872,-0.1862,-0.1862,-0.1862,-0.1862,0,-0.1211,-0.1181,-0.1196,-0.1173,-0.1121,-0.1119,-0.1064,-0.1056,-0.1064,-0.104,-0.111,-0.1129,-0.1302,-0.1396,-0.1526,-0.1663,-0.1689,-0.1788,-0.1836,-0.1803,-0.1798,-0.1881,-0.1852,-0.1864,-0.1863,-0.1863,-0.1863,0,-0.115,-0.1167,-0.1128,-0.1117,-0.1099,-0.106,-0.1007,-0.0974,-0.0994,-0.0981,-0.0993,-0.1063,-0.1174,-0.1328,-0.1522,-0.1621,-0.179,-0.1811,-0.1728,-0.1763,-0.1857,-0.1822,-0.193,-0.1983,-0.1872,-0.1872,-0.1872,0,-0.1099,-0.1091,-0.1078,-0.1045,-0.1026,-0.0977,-0.093,-0.0928,-0.0903,-0.0933,-0.0926,-0.1022,-0.106,-0.1294,-0.1504,-0.1702,-0.1775,-0.1774,-0.1807,-0.1825,-0.1824,-0.1898,-0.1941,-0.1789,-0.1788,-0.1788,-0.1787,0,-0.1004,-0.1018,-0.101,-0.0973,-0.0917,-0.0851,-0.0805,-0.0781,-0.0792,-0.078,-0.0796,-0.0836,-0.1055,-0.1204,-0.1447,-0.1609,-0.178,-0.1762,-0.1829,-0.1771,-0.1807,-0.1893,-0.1766,-0.178,-0.178,-0.1781,-0.1781,-0.1782,-0.0942,-0.091,-0.0927,-0.0882,-0.0821,-0.075,-0.0688,-0.0653,-0.061,-0.0571,-0.0649,-0.0639,-0.0857,-0.1193,-0.1429,-0.1733,-0.1772,-0.1807,-0.1766,-0.1847,-0.1878,-0.1693,-0.1734,-0.1735,-0.1735,-0.1735,-0.1736,0,-0.0885,-0.0864,-0.0821,-0.0772,-0.0706,-0.0692,-0.0613,-0.055,-0.048,-0.041,-0.0391,-0.0442,-0.0683,-0.0999,-0.1368,-0.1632,-0.1864,-0.178,-0.1879,-0.1929,-0.1811,-0.1787,-0.1783,-0.1783,-0.1783,-0.1783,-0.1783,-0.1783,-0.0855,-0.0815,-0.0804,-0.0693,-0.0647,-0.0536,-0.0489,-0.0389,-0.0312,-0.0159,-0.0084,-0.0063,-0.018,-0.081,-0.1347,-0.1562,-0.1756,-0.1857,-0.1956,-0.1841,-0.1842,-0.1844,-0.1822,-0.1825,-0.1825,-0.2157,-0.2159,-0.216]}],[{"header":{"parameterUnit":"m.s-1","parameterCategory":2,"la1":30.2991,"la2":30.254,"lo1":-89.0895,"lo2":-89.0444,"dy":0.0017,"dx":0.0017,"nx":28,"ny":28,"refTime":"2023-05-01T21:00:00:Z","depth":"2","parameterNumber":2,"parameterNumberName":"U-component_of_CURRENTS"},"data":[0,0,0,0,0,0,0,0,0,0,0,0,0,0,0,0,0,0,0,0,0,0,0,0,0,0,0,0,0,0,0,0,0,0,0,0,0,0,0,0,0,0,0,0,0,0,0,0,0,0,0,0,0,0,0,0,0,0,0.158,0.1581,0,0.1637,0.1637,0.1637,0.159,0.1589,0.1587,0.1586,0.1579,0.158,0.1581,0,0,0,0,0,0,0,0,0,0,0,0,0,0.145,0.1453,0.158,0.1581,0.1582,0.1637,0.1637,0.1637,0.1591,0.1589,0.1587,0.1585,0.1578,0.158,0.1581,0,0,0,0,0,0,0,0,0,0,0,0,0,0.1502,0.1453,0.1579,0.1569,0.1569,0.1637,0.1637,0.1637,0.1591,0.1589,0.1586,0.1584,0.1578,0.158,0.1582,0.1639,0,0,0.1587,0.1588,0,0,0,0,0,0,0,0,0.1499,0.1506,0.1569,0.157,0.157,0.1608,0.1589,0.1636,0.1592,0.1577,0.1586,0.1583,0.1588,0.1589,0.1598,0.1638,0.1638,0.1587,0.1588,0.1589,0.159,0,0,0,0,0,0,0,0.1496,0.1504,0.1597,0.1571,0.1571,0.1569,0.1573,0.1598,0.159,0.1578,0.1576,0.1591,0.1586,0.1597,0.1598,0.1638,0.1587,0.1589,0.159,0.1591,0.1771,0.1775,0,0,0,0,0,0,0.1501,0.1501,0.1595,0.1599,0.1534,0.1573,0.1577,0.1594,0.1591,0.159,0.1593,0.1589,0.1595,0.1596,0.1597,0.1706,0.1589,0.1591,0.1592,0.1768,0.1772,0.1776,0,0,0,0,0,0,0.1498,0.1509,0.1593,0.1555,0.1566,0.1578,0.1597,0.1597,0.1619,0.1604,0.16,0.1617,0.1593,0.1595,0.1662,0.1703,0.1592,0.1593,0.1763,0.1769,0.1774,0.1897,0,0,0,0,0,0,0.1494,0.1507,0.1531,0.1555,0.1568,0.1637,0.16,0.16,0.1633,0.1628,0.1624,0.162,0.1591,0.166,0.1664,0.1704,0.1595,0.1759,0.1766,0.1772,0.1889,0.1906,0.1922,0,0,0,0,0,0.1489,0.1534,0.1532,0.1544,0.1597,0.1639,0.1646,0.1642,0.1637,0.1653,0.1678,0.162,0.1705,0.1666,0.1669,0.171,0.1755,0.1764,0.1772,0.1881,0.1903,0.1921,0,0,0,0,0,0,0.1496,0.1535,0.1532,0.1588,0.1612,0.1633,0.1663,0.1666,0.17,0.1698,0.1681,0.1682,0.1758,0.1731,0.1688,0.1786,0.1716,0.1725,0.1798,0.1818,0.1834,0.1813,0.1596,0,0,0,0,0,0.1511,0.1552,0.1578,0.1625,0.164,0.1658,0.1681,0.1677,0.1708,0.1719,0.1727,0.1747,0.1797,0.1804,0.1833,0.1891,0.1884,0.1919,0.1935,0.1949,0.1938,0.1995,0.2014,0.1803,0.1803,0.1803,0,0,0.153,0.1558,0.1582,0.163,0.165,0.1686,0.1665,0.1705,0.1745,0.1717,0.1787,0.1816,0.1834,0.1903,0.1931,0.188,0.2016,0.196,0.1971,0.1952,0.2005,0.2025,0.2043,0.1809,0.1808,0.1807,0,0,0.1567,0.1611,0.1638,0.167,0.1705,0.1726,0.1744,0.1777,0.1798,0.187,0.188,0.1947,0.1987,0.2022,0.2044,0.2175,0.2117,0.2173,0.2219,0.2275,0.2292,0.2307,0.2358,0.2376,0.2161,0.2161,0.2161,0,0.1578,0.1623,0.1655,0.1687,0.1729,0.1749,0.1788,0.1829,0.1882,0.1919,0.1898,0.2026,0.2047,0.2154,0.2197,0.221,0.2221,0.2139,0.2295,0.2309,0.2321,0.237,0.2388,0.2168,0.2167,0.2167,0.2166,0,0.1621,0.1664,0.1694,0.1743,0.1794,0.1839,0.1895,0.1948,0.1982,0.2011,0.2121,0.2168,0.2226,0.2262,0.2267,0.238,0.2355,0.2324,0.2236,0.2349,0.2395,0.2412,0.2178,0.2176,0.2174,0.2172,0,0,0.1614,0.17,0.1707,0.1733,0.1829,0.1862,0.1969,0.205,0.2103,0.2165,0.2242,0.2357,0.2361,0.2389,0.2415,0.2463,0.2592,0.2425,0.2424,0.2461,0.2713,0.2546,0.2547,0.2578,0.2581,0.2583,0.272,0,0.1625,0.1684,0.1741,0.1817,0.1857,0.1939,0.2024,0.2108,0.2179,0.2259,0.2335,0.2414,0.2417,0.2448,0.2509,0.2571,0.2635,0.2557,0.2608,0.261,0.2434,0.256,0.2156,0.2229,0.2736,0.2738,0.274,0,0.1635,0.1678,0.1742,0.184,0.1864,0.1912,0.2049,0.2128,0.2261,0.2311,0.2407,0.2461,0.2586,0.2549,0.2704,0.2647,0.2693,0.2728,0.2733,0.2532,0.2471,0.2193,0.224,0.2767,0.2765,0.2763,0.2761,0,0.1598,0.168,0.1728,0.1767,0.188,0.1925,0.1992,0.2129,0.2195,0.2343,0.2386,0.2535,0.2589,0.2689,0.2766,0.2747,0.2898,0.2882,0.2786,0.2775,0.2415,0.2365,0.2993,0.2993,0.2992,0.2992,0.2992,0,0.1606,0.1639,0.1695,0.1726,0.177,0.1874,0.194,0.2037,0.2164,0.2239,0.2385,0.2454,0.2619,0.2721,0.2798,0.2828,0.2932,0.2812,0.2801,0.245,0.2405,0.2839,0.2819,0.2997,0.2996,0.2995,0.2994,0,0.1576,0.1619,0.1657,0.1737,0.175,0.1783,0.1876,0.1937,0.2056,0.2165,0.2216,0.2407,0.2535,0.2676,0.2839,0.2829,0.2906,0.289,0.2464,0.2398,0.275,0.2736,0.2825,0.282,0.2816,0.2813,0.281,0,0.1575,0.1587,0.1626,0.1633,0.1661,0.1705,0.1745,0.1868,0.1942,0.2124,0.2176,0.2333,0.2387,0.2542,0.2555,0.2638,0.2824,0.2353,0.2244,0.2753,0.2735,0.2727,0.2719,0.1848,0.1838,0.183,0.1823,0,0.1556,0.155,0.1571,0.157,0.1588,0.1623,0.1688,0.1715,0.1879,0.1952,0.2063,0.2105,0.2175,0.205,0.2118,0.2126,0.2304,0.2179,0.283,0.1935,0.1837,0.1818,0.1841,0.1746,0.1754,0.176,0.1764,0.1767,0.151,0.1492,0.1484,0.1495,0.1515,0.1534,0.1543,0.1617,0.1672,0.1732,0.1825,0.1724,0.1613,0.148,0.1581,0.1701,0.1827,0.1743,0.1768,0.1802,0.1646,0.1544,0.1371,0.1376,0.138,0.1384,0.1388,0,0.1427,0.1405,0.1415,0.1407,0.1418,0.146,0.1505,0.1468,0.1485,0.1487,0.1474,0.1065,0.0891,0.099,0.0988,0.1053,0.1076,0.1103,0.1055,0.1117,0.1176,0.0994,0.0545,0.0546,0.0548,0.0549,0,0,0.137,0.1324,0.1335,0.1307,0.1322,0.1311,0.1325,0.1249,0.12,0.1041,0.0895,0.0671,0.0674,0.0478,0.0509,0.0587,0.0899,0.0579,0.1179,0.1164,0.1228,0.1387,0.1153,0,0,0,0,0]},{"header":{"parameterUnit":"m.s-1","parameterCategory":2,"la1":30.2991,"la2":30.254,"lo1":-89.0895,"lo2":-89.0444,"dy":0.0017,"dx":0.0017,"nx":28,"ny":28,"refTime":"2023-05-01T21:00:00:Z","depth":"2","parameterNumber":3,"parameterNumberName":"V-component_of_CURRENTS"},"data":[0,0,0,0,0,0,0,0,0,0,0,0,0,0,0,0,0,0,0,0,0,0,0,0,0,0,0,0,0,0,0,0,0,0,0,0,0,0,0,0,0,0,0,0,0,0,0,0,0,0,0,0,0,0,0,0,0,0,0.1183,0.1182,0,0.1064,0.1062,0.1061,0.0969,0.0969,0.0968,0.0967,0.084,0.0837,0.0835,0,0,0,0,0,0,0,0,0,0,0,0,0,0.1265,0.1265,0.1183,0.1182,0.118,0.1064,0.1062,0.106,0.0969,0.0969,0.0968,0.0967,0.0841,0.0838,0.0834,0,0,0,0,0,0,0,0,0,0,0,0,0,0.1195,0.1264,0.1183,0.1122,0.1116,0.1064,0.1062,0.106,0.097,0.0969,0.0967,0.0966,0.0842,0.0838,0.0834,0.083,0,0,0.0821,0.082,0,0,0,0,0,0,0,0,0.1199,0.1192,0.1132,0.1126,0.1119,0.1031,0.1044,0.0983,0.097,0.1024,0.0967,0.0966,0.0905,0.0896,0.0874,0.0824,0.0819,0.0821,0.0818,0.0817,0.0816,0,0,0,0,0,0,0,0.1204,0.1196,0.1134,0.1131,0.1123,0.1078,0.1067,0.1032,0.0971,0.1019,0.1012,0.1002,0.0901,0.0878,0.087,0.0817,0.0821,0.0817,0.0815,0.0813,0.0675,0.0674,0,0,0,0,0,0,0.1227,0.1201,0.1138,0.1131,0.1159,0.1077,0.1065,0.1059,0.0971,0.0957,0.1003,0.0998,0.0885,0.0875,0.0865,0.082,0.0817,0.0813,0.0811,0.0676,0.0675,0.0673,0,0,0,0,0,0,0.1229,0.1222,0.1143,0.1164,0.1151,0.1078,0.1071,0.1058,0.1017,0.0959,0.0944,0.0974,0.0884,0.0871,0.0832,0.0816,0.0811,0.0807,0.0678,0.0676,0.0674,0.0754,0,0,0,0,0,0,0.1232,0.1224,0.1211,0.1166,0.1151,0.1122,0.1072,0.1056,0.1014,0.1006,0.093,0.0918,0.0882,0.0839,0.0828,0.081,0.0804,0.0679,0.0677,0.0675,0.0753,0.0755,0.0757,0,0,0,0,0,0.1235,0.1221,0.1212,0.1203,0.1141,0.1123,0.1112,0.1054,0.1014,0.1009,0.0954,0.0919,0.0815,0.0836,0.0823,0.0804,0.068,0.0677,0.0675,0.0752,0.0754,0.0757,0,0,0,0,0,0,0.1235,0.121,0.1198,0.1173,0.1159,0.1109,0.1079,0.1051,0.1001,0.0967,0.0922,0.0908,0.0868,0.082,0.0844,0.0751,0.0734,0.0729,0.0796,0.0798,0.08,0.0756,0.0801,0,0,0,0,0,0.1237,0.122,0.1205,0.118,0.1175,0.1128,0.1103,0.1065,0.1022,0.0996,0.0949,0.0884,0.0849,0.0814,0.0774,0.073,0.0686,0.0699,0.0702,0.0704,0.0656,0.0617,0.0612,0.0664,0.0664,0.0664,0,0,0.1229,0.1208,0.1198,0.1179,0.115,0.1148,0.1109,0.1064,0.1037,0.0991,0.0929,0.0901,0.0843,0.08,0.0773,0.0755,0.0671,0.0701,0.0704,0.0652,0.0613,0.0608,0.0604,0.0662,0.0663,0.0663,0,0,0.1214,0.1191,0.1184,0.1179,0.1143,0.1126,0.112,0.1072,0.1026,0.0971,0.0943,0.0909,0.0822,0.0801,0.0774,0.0757,0.0698,0.0728,0.0688,0.0654,0.0649,0.0645,0.0615,0.0607,0.0713,0.0713,0.0713,0,0.12,0.12,0.1178,0.1176,0.1176,0.1127,0.1136,0.1082,0.1021,0.0984,0.0947,0.0856,0.0817,0.0796,0.0765,0.0764,0.072,0.0699,0.0659,0.0654,0.0648,0.0617,0.0607,0.0717,0.0716,0.0716,0.0715,0,0.12,0.1198,0.119,0.1187,0.1185,0.1173,0.1135,0.1097,0.1028,0.0966,0.0906,0.0865,0.08,0.0796,0.0752,0.0703,0.0681,0.0691,0.0665,0.0648,0.0616,0.0605,0.0722,0.072,0.0719,0.0718,0,0,0.1167,0.1194,0.1184,0.1218,0.1192,0.1203,0.1153,0.1117,0.1093,0.0978,0.0956,0.0853,0.0798,0.076,0.0747,0.0691,0.0627,0.0637,0.0633,0.0624,0.053,0.0569,0.056,0.0624,0.0622,0.062,0.0539,0,0.1175,0.1213,0.1211,0.1248,0.1281,0.1248,0.1227,0.1166,0.11,0.1059,0.0952,0.0903,0.0796,0.0782,0.0702,0.0664,0.059,0.0646,0.0527,0.0523,0.0575,0.0546,0.0494,0.042,0.0527,0.0525,0.0524,0,0.1165,0.1209,0.1253,0.1325,0.1334,0.1328,0.133,0.13,0.1202,0.1135,0.1031,0.0958,0.0843,0.0783,0.0611,0.0641,0.0541,0.0501,0.0499,0.0481,0.0538,0.0442,0.0394,0.0504,0.0505,0.0507,0.0508,0,0.1166,0.1236,0.1286,0.1302,0.1355,0.1349,0.1353,0.1289,0.1267,0.1168,0.1137,0.0997,0.0925,0.0776,0.0599,0.059,0.0446,0.0458,0.0403,0.0407,0.0306,0.0305,0.0317,0.0317,0.0317,0.0317,0.0317,0,0.1175,0.1209,0.1289,0.1305,0.1358,0.1377,0.138,0.135,0.1323,0.1293,0.1152,0.1132,0.0899,0.0785,0.0631,0.0467,0.0452,0.0363,0.0375,0.0338,0.034,0.0359,0.0365,0.0314,0.0315,0.0315,0.0316,0,0.1133,0.1184,0.1241,0.1319,0.1339,0.1353,0.1383,0.1396,0.1352,0.1332,0.1288,0.1179,0.1002,0.0818,0.0619,0.0517,0.0388,0.0335,0.0305,0.0315,0.0362,0.0372,0.0264,0.0265,0.0265,0.0265,0.0266,0,0.1113,0.1144,0.122,0.1254,0.1272,0.1309,0.1328,0.135,0.1389,0.1367,0.1384,0.1222,0.112,0.0871,0.0662,0.0436,0.0374,0.0259,0.0234,0.0326,0.035,0.036,0.037,0.0137,0.0136,0.0135,0.0135,0,0.1099,0.11,0.1152,0.1211,0.1247,0.1323,0.1379,0.1437,0.1466,0.1458,0.1467,0.1399,0.1147,0.0869,0.0581,0.046,0.0296,0.0243,0.0321,0.0186,0.0207,0.0231,0.0244,0.0128,0.0129,0.013,0.013,0.013,0.1066,0.1083,0.114,0.1191,0.1246,0.1354,0.141,0.1516,0.1585,0.1607,0.1575,0.1356,0.1033,0.0587,0.043,0.0267,0.0314,0.017,0.017,0.0172,0.0199,0.0223,0.0151,0.0152,0.0153,0.0153,0.0154,0,0.1055,0.1081,0.1141,0.1223,0.129,0.1311,0.1464,0.1548,0.1644,0.1559,0.154,0.1033,0.0778,0.0426,0.019,0.0117,0.0122,0.0037,-0.0006,0.0002,0.0009,0.0026,-0.0068,-0.0069,-0.007,-0.007,0,0,0.1072,0.1102,0.1137,0.1256,0.1296,0.1394,0.1475,0.1596,0.1584,0.1436,0.1159,0.1044,0.0601,0.0302,0.0174,0.0039,0.0075,0.0048,0.024,0.022,0.0228,0.01,0.0138,0,0,0,0,0]}],[{"header":{"parameterUnit":"m.s-1","parameterCategory":2,"la1":30.2991,"la2":30.254,"lo1":-89.0895,"lo2":-89.0444,"dy":0.0017,"dx":0.0017,"nx":28,"ny":28,"refTime":"2023-05-01T21:00:00:Z","depth":"4","parameterNumber":2,"parameterNumberName":"U-component_of_CURRENTS"},"data":[0,0,0,0,0,0,0,0,0,0,0,0,0,0,0,0,0,0,0,0,0,0,0,0,0,0,0,0,0,0,0,0,0,0,0,0,0,0,0,0,0,0,0,0,0,0,0,0,0,0,0,0,0,0,0,0,0,0,-0.0077,-0.0078,0,-0.0142,-0.0143,-0.0144,-0.0213,-0.0213,-0.0214,-0.0215,-0.0384,-0.0388,-0.0391,0,0,0,0,0,0,0,0,0,0,0,0,0,-0.007,-0.0069,-0.0077,-0.0078,-0.0079,-0.0142,-0.0143,-0.0144,-0.0212,-0.0213,-0.0214,-0.0215,-0.0383,-0.0387,-0.0392,0,0,0,0,0,0,0,0,0,0,0,0,0,-0.01,-0.0069,-0.0077,-0.0119,-0.0123,-0.0142,-0.0143,-0.0144,-0.0212,-0.0213,-0.0215,-0.0216,-0.0381,-0.0387,-0.0392,-0.0405,0,0,-0.041,-0.0412,0,0,0,0,0,0,0,0,-0.0098,-0.01,-0.0112,-0.0116,-0.012,-0.0168,-0.0202,-0.0236,-0.0212,-0.0181,-0.0215,-0.0216,-0.0319,-0.033,-0.0342,-0.0413,-0.042,-0.041,-0.0414,-0.0416,-0.0418,0,0,0,0,0,0,0,-0.0095,-0.0098,-0.0105,-0.0112,-0.0118,-0.0153,-0.0158,-0.0209,-0.0247,-0.0184,-0.0188,-0.0191,-0.0323,-0.0336,-0.0346,-0.0423,-0.041,-0.0415,-0.0419,-0.0421,-0.0574,-0.0575,0,0,0,0,0,0,-0.0078,-0.0095,-0.0103,-0.0107,-0.0109,-0.0152,-0.0158,-0.0154,-0.0244,-0.0257,-0.019,-0.0194,-0.0326,-0.034,-0.0353,-0.0435,-0.0416,-0.0422,-0.0425,-0.0573,-0.0574,-0.0575,0,0,0,0,0,0,-0.0078,-0.0078,-0.0101,-0.0102,-0.0107,-0.015,-0.0145,-0.0154,-0.0183,-0.0247,-0.0263,-0.0211,-0.0327,-0.0345,-0.042,-0.044,-0.0424,-0.0429,-0.0573,-0.0574,-0.0574,-0.0559,0,0,0,0,0,0,-0.0077,-0.0077,-0.0081,-0.01,-0.0106,-0.0116,-0.0144,-0.0155,-0.0181,-0.0187,-0.027,-0.0286,-0.0329,-0.0411,-0.0425,-0.0447,-0.0434,-0.0572,-0.0573,-0.0574,-0.0559,-0.056,-0.056,0,0,0,0,0,-0.0076,-0.0078,-0.0081,-0.0082,-0.0105,-0.0116,-0.0123,-0.016,-0.0181,-0.0191,-0.0257,-0.0284,-0.0428,-0.0417,-0.0433,-0.0457,-0.0571,-0.0573,-0.0574,-0.0559,-0.056,-0.056,0,0,0,0,0,0,-0.0085,-0.0085,-0.0089,-0.0092,-0.0102,-0.0127,-0.0145,-0.0162,-0.0219,-0.0239,-0.0299,-0.032,-0.0393,-0.0423,-0.0408,-0.0503,-0.0501,-0.0506,-0.0484,-0.0485,-0.0486,-0.0461,-0.0439,0,0,0,0,0,-0.0082,-0.008,-0.0085,-0.0089,-0.0094,-0.0119,-0.0133,-0.0153,-0.0197,-0.0223,-0.0281,-0.0346,-0.0407,-0.0445,-0.05,-0.0554,-0.0551,-0.0577,-0.0578,-0.0578,-0.0569,-0.0592,-0.0593,-0.058,-0.058,-0.058,0,0,-0.0087,-0.0086,-0.0087,-0.009,-0.0106,-0.0113,-0.0132,-0.0153,-0.0172,-0.0234,-0.0298,-0.0355,-0.0421,-0.0486,-0.052,-0.0518,-0.0575,-0.058,-0.058,-0.057,-0.0593,-0.0594,-0.0595,-0.0581,-0.058,-0.058,0,0,-0.0086,-0.0093,-0.0088,-0.0094,-0.0108,-0.0122,-0.0126,-0.0156,-0.0187,-0.0242,-0.0296,-0.0359,-0.045,-0.0498,-0.0534,-0.0568,-0.0578,-0.0591,-0.0579,-0.0601,-0.0602,-0.0603,-0.0573,-0.0571,-0.0591,-0.0591,-0.0591,0,-0.0094,-0.0084,-0.0092,-0.009,-0.0101,-0.0123,-0.0129,-0.0156,-0.0211,-0.024,-0.0264,-0.0392,-0.0451,-0.0522,-0.054,-0.0569,-0.0567,-0.0572,-0.06,-0.0601,-0.0603,-0.0572,-0.057,-0.059,-0.059,-0.059,-0.059,0,-0.0086,-0.0084,-0.0086,-0.0086,-0.0101,-0.0111,-0.0138,-0.0168,-0.0209,-0.0239,-0.0318,-0.0392,-0.0464,-0.0495,-0.0536,-0.0579,-0.0568,-0.0598,-0.0594,-0.0603,-0.057,-0.0568,-0.059,-0.059,-0.059,-0.059,0,0,-0.0091,-0.0079,-0.0081,-0.008,-0.0103,-0.0111,-0.0146,-0.0179,-0.0205,-0.0266,-0.0304,-0.0408,-0.0441,-0.0482,-0.0535,-0.0561,-0.0566,-0.0584,-0.0585,-0.0543,-0.0578,-0.0474,-0.0462,-0.0608,-0.0608,-0.0608,-0.0541,0,-0.0086,-0.0066,-0.0075,-0.008,-0.0078,-0.0111,-0.0138,-0.0178,-0.0223,-0.0265,-0.0333,-0.039,-0.0437,-0.0473,-0.0509,-0.056,-0.0566,-0.0578,-0.0585,-0.0583,-0.0483,-0.0459,-0.061,-0.054,-0.054,-0.0539,-0.0539,0,-0.0083,-0.0066,-0.0056,-0.0068,-0.0074,-0.0086,-0.0134,-0.0161,-0.022,-0.0256,-0.0313,-0.0361,-0.0415,-0.045,-0.0508,-0.0516,-0.0541,-0.0567,-0.0566,-0.0472,-0.0477,-0.0538,-0.0536,-0.0537,-0.0537,-0.0537,-0.0537,0,-0.0077,-0.0067,-0.0055,-0.0058,-0.0069,-0.0086,-0.0107,-0.0161,-0.0185,-0.024,-0.0255,-0.0329,-0.0354,-0.0411,-0.0447,-0.0491,-0.0477,-0.0547,-0.0462,-0.0454,-0.0576,-0.0576,-0.057,-0.057,-0.057,-0.057,-0.057,0,-0.0073,-0.0069,-0.0046,-0.004,-0.0041,-0.0068,-0.0092,-0.0121,-0.0162,-0.0179,-0.0243,-0.0253,-0.0349,-0.0355,-0.0412,-0.0393,-0.0441,-0.0435,-0.0431,-0.0567,-0.0568,-0.0572,-0.0574,-0.0567,-0.0568,-0.0568,-0.0569,0,-0.0077,-0.0057,-0.0044,-0.0038,-0.0034,-0.0042,-0.0063,-0.0085,-0.0114,-0.013,-0.0139,-0.0186,-0.0185,-0.0227,-0.0286,-0.0315,-0.033,-0.0309,-0.038,-0.0385,-0.0305,-0.0307,-0.0236,-0.0231,-0.0228,-0.0225,-0.0222,0,-0.0072,-0.006,-0.0034,-0.0021,-0.0016,-0.002,-0.003,-0.0061,-0.0074,-0.0082,-0.0083,-0.0071,-0.0098,-0.0071,-0.0134,-0.016,-0.0186,-0.018,-0.0315,-0.0268,-0.0272,-0.028,-0.0286,-0.0217,-0.0216,-0.0215,-0.0214,0,-0.0071,-0.0064,-0.0053,-0.0013,-0.0007,-0.0005,-0.001,-0.0002,-0.003,-0.0042,-0.0021,-0.0022,0.0009,-0.0026,0.0003,-0.0047,-0.0189,-0.0144,-0.0155,-0.0283,-0.0245,-0.0254,-0.0264,-0.0201,-0.0203,-0.0204,-0.0205,0,-0.0081,-0.0074,-0.0051,-0.0028,0.0001,0.0015,0.0005,0.0011,0.0005,0.0008,0.0029,0.0034,0.003,0.004,0.0047,0.0048,-0.0014,-0.0075,-0.0092,-0.0106,-0.0097,-0.0033,0.0102,0,0,0,0,0,-0.0083,-0.0082,-0.0063,-0.003,0.0005,0.0017,0.0023,0.0009,0.0016,0.0038,0.0033,0.0062,0.0079,0.0079,0.0095,0.0081,-0.0018,0.0098,-0.0099,-0.0133,-0.0147,-0.0152,0,0,0,0,0,0,-0.0088,-0.0075,-0.0073,-0.0028,0.0002,0.0024,0.003,0.0023,0.0037,0.005,0.0062,0.0064,0.0082,0.008,0.0098,0.0099,-0.0027,0.0105,0.0105,-0.0125,-0.0138,-0.0149,-0.0159,0,0,0,0,0]},{"header":{"parameterUnit":"m.s-1","parameterCategory":2,"la1":30.2991,"la2":30.254,"lo1":-89.0895,"lo2":-89.0444,"dy":0.0017,"dx":0.0017,"nx":28,"ny":28,"refTime":"2023-05-01T21:00:00:Z","depth":"4","parameterNumber":3,"parameterNumberName":"V-component_of_CURRENTS"},"data":[0,0,0,0,0,0,0,0,0,0,0,0,0,0,0,0,0,0,0,0,0,0,0,0,0,0,0,0,0,0,0,0,0,0,0,0,0,0,0,0,0,0,0,0,0,0,0,0,0,0,0,0,0,0,0,0,0,0,-0.0306,-0.0306,0,-0.0341,-0.0341,-0.0342,-0.0354,-0.0354,-0.0354,-0.0354,-0.0297,-0.0296,-0.0295,0,0,0,0,0,0,0,0,0,0,0,0,0,-0.0244,-0.0245,-0.0306,-0.0306,-0.0307,-0.0341,-0.0341,-0.0342,-0.0354,-0.0354,-0.0354,-0.0354,-0.0298,-0.0296,-0.0295,0,0,0,0,0,0,0,0,0,0,0,0,0,-0.0274,-0.0245,-0.0306,-0.0317,-0.0319,-0.0341,-0.0341,-0.0342,-0.0354,-0.0354,-0.0354,-0.0354,-0.0298,-0.0296,-0.0294,-0.0284,0,0,-0.0288,-0.0287,0,0,0,0,0,0,0,0,-0.0272,-0.0276,-0.0315,-0.0316,-0.0318,-0.0343,-0.0299,-0.0318,-0.0354,-0.034,-0.0354,-0.0354,-0.0304,-0.0302,-0.031,-0.0281,-0.0279,-0.0288,-0.0286,-0.0285,-0.0285,0,0,0,0,0,0,0,-0.027,-0.0274,-0.0319,-0.0316,-0.0317,-0.0319,-0.0323,-0.0303,-0.0321,-0.0341,-0.0343,-0.0347,-0.0305,-0.0312,-0.0308,-0.0278,-0.0288,-0.0286,-0.0284,-0.0284,-0.0255,-0.0256,0,0,0,0,0,0,-0.0267,-0.0273,-0.0318,-0.032,-0.0295,-0.032,-0.0324,-0.0335,-0.0323,-0.0322,-0.0347,-0.0347,-0.0315,-0.0311,-0.0306,-0.0299,-0.0285,-0.0283,-0.0282,-0.0255,-0.0255,-0.0256,0,0,0,0,0,0,-0.0265,-0.0271,-0.0317,-0.0297,-0.0303,-0.0321,-0.0333,-0.0336,-0.0348,-0.0328,-0.0325,-0.0357,-0.0315,-0.0309,-0.0308,-0.0296,-0.0282,-0.0281,-0.0254,-0.0255,-0.0256,-0.028,0,0,0,0,0,0,-0.0264,-0.027,-0.0285,-0.0297,-0.0304,-0.034,-0.0333,-0.0337,-0.0351,-0.0352,-0.0335,-0.033,-0.0315,-0.0311,-0.0306,-0.0293,-0.0279,-0.0254,-0.0255,-0.0256,-0.0278,-0.0281,-0.0284,0,0,0,0,0,-0.0261,-0.0282,-0.0285,-0.0291,-0.0321,-0.0341,-0.0345,-0.0357,-0.0351,-0.0365,-0.0359,-0.0331,-0.0313,-0.0311,-0.0304,-0.029,-0.0253,-0.0254,-0.0255,-0.0277,-0.0281,-0.0284,0,0,0,0,0,0,-0.0262,-0.0286,-0.0289,-0.0317,-0.0331,-0.0344,-0.0363,-0.036,-0.0368,-0.0367,-0.0343,-0.0338,-0.0336,-0.0314,-0.0312,-0.0287,-0.0275,-0.0275,-0.0294,-0.0297,-0.03,-0.0311,-0.0277,0,0,0,0,0,-0.0268,-0.0293,-0.0308,-0.0331,-0.0342,-0.0351,-0.0362,-0.0366,-0.037,-0.0374,-0.0359,-0.0343,-0.0335,-0.0318,-0.0314,-0.0294,-0.0286,-0.028,-0.0283,-0.0285,-0.0291,-0.0277,-0.0279,-0.026,-0.026,-0.026,0,0,-0.0274,-0.0292,-0.0305,-0.0333,-0.0349,-0.037,-0.0359,-0.038,-0.0391,-0.0364,-0.0375,-0.036,-0.0338,-0.033,-0.0323,-0.0306,-0.0289,-0.0287,-0.0289,-0.0294,-0.0278,-0.028,-0.0281,-0.0261,-0.0261,-0.026,0,0,-0.0295,-0.0316,-0.0342,-0.0361,-0.0385,-0.0391,-0.0396,-0.0407,-0.0411,-0.0414,-0.0402,-0.0392,-0.0364,-0.0354,-0.0342,-0.0356,-0.0317,-0.0335,-0.0338,-0.0324,-0.0325,-0.0326,-0.0329,-0.033,-0.0319,-0.0319,-0.0319,0,-0.0301,-0.0333,-0.0352,-0.0381,-0.0399,-0.04,-0.0424,-0.0432,-0.0436,-0.0437,-0.0422,-0.0402,-0.0381,-0.0373,-0.0371,-0.0362,-0.0346,-0.0325,-0.0327,-0.0327,-0.0328,-0.0331,-0.0331,-0.0321,-0.032,-0.032,-0.032,0,-0.0334,-0.0366,-0.0386,-0.0423,-0.0445,-0.0467,-0.0479,-0.0487,-0.0478,-0.0477,-0.0473,-0.0449,-0.043,-0.0413,-0.0389,-0.0375,-0.0362,-0.0345,-0.0317,-0.0331,-0.0333,-0.0334,-0.0322,-0.0322,-0.0322,-0.0321,0,0,-0.0326,-0.0394,-0.0402,-0.0428,-0.0467,-0.0486,-0.051,-0.0526,-0.0535,-0.0524,-0.0528,-0.0502,-0.0476,-0.0462,-0.0426,-0.0399,-0.0388,-0.0358,-0.0357,-0.036,-0.0357,-0.0381,-0.0383,-0.0354,-0.0354,-0.0354,-0.0361,0,-0.0343,-0.0401,-0.0431,-0.0482,-0.0511,-0.0529,-0.0551,-0.0567,-0.0565,-0.057,-0.0545,-0.0533,-0.0498,-0.0467,-0.0445,-0.0404,-0.0387,-0.0388,-0.0345,-0.0344,-0.0361,-0.0384,-0.0353,-0.0361,-0.0361,-0.0361,-0.0361,0,-0.0361,-0.0397,-0.0453,-0.051,-0.0525,-0.0551,-0.0582,-0.0598,-0.061,-0.0602,-0.0588,-0.0568,-0.0538,-0.0499,-0.0452,-0.0444,-0.0405,-0.0374,-0.0374,-0.0388,-0.0368,-0.0341,-0.0361,-0.0361,-0.0361,-0.0361,-0.0361,0,-0.0345,-0.0412,-0.0456,-0.0479,-0.0542,-0.0561,-0.0579,-0.0603,-0.0611,-0.0609,-0.0601,-0.0586,-0.0551,-0.0515,-0.0456,-0.0438,-0.0409,-0.0384,-0.0381,-0.0383,-0.0347,-0.0346,-0.036,-0.036,-0.036,-0.036,-0.036,0,-0.0351,-0.0392,-0.0451,-0.048,-0.0517,-0.0556,-0.0584,-0.0596,-0.0611,-0.0615,-0.0603,-0.0574,-0.0542,-0.052,-0.0477,-0.0442,-0.043,-0.0397,-0.0387,-0.0359,-0.0359,-0.0348,-0.0346,-0.036,-0.036,-0.036,-0.036,0,-0.035,-0.0389,-0.0446,-0.0506,-0.0518,-0.0543,-0.0581,-0.0596,-0.0599,-0.0601,-0.0591,-0.0561,-0.0523,-0.0523,-0.0467,-0.046,-0.043,-0.0418,-0.0413,-0.04,-0.041,-0.041,-0.0425,-0.0426,-0.0426,-0.0427,-0.0427,0,-0.0364,-0.0392,-0.0459,-0.0479,-0.0511,-0.0542,-0.056,-0.0581,-0.0581,-0.0572,-0.0558,-0.0535,-0.0517,-0.0466,-0.0463,-0.0457,-0.0437,-0.0444,-0.0411,-0.0428,-0.0417,-0.0416,-0.0415,-0.0429,-0.0429,-0.0429,-0.0429,0,-0.039,-0.0417,-0.046,-0.0482,-0.0509,-0.0544,-0.0556,-0.0536,-0.0546,-0.0571,-0.05,-0.0487,-0.0464,-0.0438,-0.0459,-0.0435,-0.0458,-0.0451,-0.0449,-0.0418,-0.0433,-0.0421,-0.0419,-0.0432,-0.0432,-0.0431,-0.0431,0,-0.041,-0.0435,-0.047,-0.0485,-0.0518,-0.0517,-0.0525,-0.0504,-0.05,-0.0479,-0.0447,-0.0429,-0.0429,-0.0425,-0.0424,-0.0443,-0.0428,-0.0416,-0.0415,-0.0412,-0.0412,-0.043,-0.0428,0,0,0,0,0,-0.0424,-0.0438,-0.0461,-0.0468,-0.0494,-0.0508,-0.0516,-0.0515,-0.0501,-0.0448,-0.0448,-0.0421,-0.0416,-0.0392,-0.0409,-0.0446,-0.0448,-0.0469,-0.0438,-0.0447,-0.0444,-0.0448,0,0,0,0,0,0,-0.0428,-0.0463,-0.0459,-0.0448,-0.0441,-0.0462,-0.0463,-0.0457,-0.041,-0.0401,-0.0377,-0.0423,-0.0403,-0.0401,-0.0403,-0.0414,-0.0396,-0.0484,-0.0484,-0.0449,-0.0446,-0.0443,-0.0447,0,0,0,0,0]}]]